Kuchera_Ratio
0.0 0.0 0.0 0.0 0.0 0.0 0.0 0.0 0.0 0.0 0.0 0.0 0.0 0.0 0.0 0.0 0.0 0.0 0.0 0.0 0.0 0.0 0.0 0.0 0.0 0.0 0.0 0.0 0.0 0.0 0.0 0.0 0.0 0.0 0.0 0.0 0.0 0.0 0.0 0.0 0.0 0.0 0.0 0.0 0.0
0.0 0.0 0.0 0.0 0.0 0.0 0.0 0.0 0.0 0.0 0.0 0.0 0.0 0.0 0.0 0.0 0.0 0.0 0.0 0.0 0.0 0.0 0.0 0.0 0.0 0.0 0.0 0.0 0.0 0.0 0.0 0.0 0.0 0.0 0.0 0.0 0.0 0.0 0.0 0.0 0.0 0.0 0.0 0.0 0.0
0.0 0.0 0.0 0.0 0.0 0.0 0.0 0.0 0.0 0.0 0.0 0.0 0.0 0.0 0.0 0.0 0.0 0.0 0.0 0.0 0.0 0.0 0.0 0.0 0.0 0.0 0.0 0.0 0.0 0.0 0.0 0.0 0.0 0.0 0.0 0.0 0.0 0.0 0.0 0.0 0.0 0.0 0.0 0.0 0.0
0.0 0.0 0.0 0.0 0.0 0.0 0.0 0.0 0.0 0.0 0.0 0.0 0.0 0.0 0.0 0.0 3.2 0.0 0.0 0.0 0.0 0.0 0.0 0.0 0.0 0.0 0.0 0.0 0.0 0.0 0.0 0.0 0.0 0.0 0.0 0.0 0.0 0.0 0.0 0.0 0.0 0.0 0.0 0.0 0.0
0.0 0.0 0.0 0.0 0.0 0.0 0.0 0.0 0.0 0.0 0.0 0.0 0.0 0.0 0.0 0.0 0.0 0.0 0.0 0.0 0.0 0.0 0.0 0.0 0.0 0.0 0.0 0.0 0.0 0.0 0.0 0.0 0.0 0.0 0.0 0.0 0.0 0.0 0.0 0.0 0.0 0.0 0.0 0.0 0.0
0.0 0.0 0.0 0.0 0.0 0.0 0.0 0.0 0.0 0.0 0.0 0.0 0.0 0.0 0.0 2.5 0.0 0.0 0.0 0.0 0.0 0.0 0.0 0.0 0.0 0.0 0.0 0.0 0.0 0.0 0.0 0.0 0.0 0.0 0.0 0.0 0.0 0.0 0.0 0.0 0.0 0.0 0.0 0.0 0.0
0.0 0.0 0.0 0.0 0.0 0.0 0.0 0.0 0.0 0.0 0.0 0.0 0.0 0.0 0.0 0.0 0.0 0.0 0.0 0.0 0.0 0.0 0.0 0.0 0.0 0.0 0.0 0.0 0.0 0.0 0.0 0.0 0.0 0.0 0.0 0.0 0.0 0.0 0.0 0.0 0.0 0.0 0.0 0.0 0.0
0.0 0.0 0.0 0.0 0.0 0.0 0.0 0.0 0.0 0.0 0.0 0.0 0.0 0.0 0.0 0.0 0.0 0.0 0.0 0.0 0.0 0.0 0.0 0.0 0.0 0.0 0.0 0.0 0.0 0.0 0.0 0.9 0.0 0.0 0.0 0.0 0.0 0.0 0.0 0.0 0.0 0.0 0.0 0.0 0.0
0.0 0.0 0.0 0.0 0.0 0.0 0.0 0.0 0.0 0.0 0.0 0.0 0.0 0.0 3.3 0.0 0.0 0.0 0.0 0.0 0.0 0.0 0.0 0.0 0.0 0.0 0.0 0.0 3.0 0.0 6.3 3.6 0.0 0.0 0.0 0.0 0.0 0.0 0.0 0.0 0.0 0.0 0.0 0.0 0.0
0.0 0.0 0.0 0.0 0.0 0.0 0.0 0.0 0.0 0.0 0.0 0.0 0.0 0.0 0.0 0.0 0.0 0.0 0.0 0.0 0.0 0.0 0.0 0.0 0.0 1.8 0.0 2.3 11.2 7.9 5.8 0.0 0.8 0.0 0.0 0.0 0.0 0.0 0.0 0.0 0.0 0.0 0.0 0.0 0.0
0.0 0.0 0.0 0.0 0.0 0.0 0.0 0.0 0.0 0.0 0.0 2.7 0.0 0.0 0.0 0.0 0.0 0.0 0.0 0.0 0.0 0.0 7.5 0.0 5.7 9.3 4.9 0.3 0.0 0.6 0.2 5.3 0.0 0.0 0.0 0.0 0.0 0.0 0.0 0.0 0.0 0.0 0.0 0.0 0.0
0.0 0.0 0.0 0.0 0.0 0.0 0.0 0.0 0.0 0.0 9.3 0.0 0.0 0.0 0.0 0.0 0.0 0.0 0.0 0.0 2.6 11.4 5.1 7.9 12.6 5.6 0.0 1.1 0.0 1.8 6.4 5.9 0.0 0.0 0.0 0.0 0.0 0.0 0.0 0.0 0.0 0.0 0.0 0.0 0.0
0.0 0.0 0.0 0.0 0.0 0.0 0.0 0.0 0.0 0.0 7.4 0.0 0.0 0.0 0.0 0.0 0.0 0.0 0.0 0.0 7.4 9.5 9.1 12.5 6.9 0.0 5.3 4.8 8.2 3.7 4.1 5.9 4.1 0.0 0.0 0.4 2.1 0.0 0.0 0.0 0.0 0.0 0.0 0.0 0.0
0.0 0.0 0.0 0.0 0.0 0.0 0.0 0.0 0.0 0.0 12.6 6.1 1.4 0.0 0.0 0.0 1.0 0.0 0.0 1.7 6.2 12.9 11.5 12.6 1.1 1.6 7.3 9.8 5.3 10.5 0.0 0.2 4.1 5.4 9.6 0.0 12.6 3.6 0.0 0.0 0.0 0.0 0.0 0.0 0.0
0.0 0.0 0.0 0.0 0.0 0.0 0.0 0.0 0.0 0.0 23.6 5.8 3.0 0.0 0.0 0.2 0.0 0.0 0.0 2.0 12.7 11.2 12.1 12.2 9.7 10.3 10.4 8.3 5.8 7.9 0.0 1.2 2.9 7.2 8.8 6.4 11.5 7.0 0.0 0.0 0.0 0.0 0.0 0.0 0.0
0.0 0.0 0.0 0.0 0.0 0.0 0.0 0.0 0.0 14.9 26.0 12.3 3.5 5.8 4.5 2.9 2.5 0.0 0.9 0.0 1.9 10.2 8.7 12.3 4.8 6.8 8.0 3.2 5.4 5.1 5.9 3.0 4.5 7.0 13.9 8.7 12.2 12.6 4.7 1.9 1.0 0.0 0.0 0.0 0.0
0.0 0.0 0.0 0.0 0.0 0.0 0.0 0.0 15.8 20.2 9.9 13.9 12.7 7.5 9.3 12.0 9.1 9.3 12.7 15.0 16.2 18.0 17.5 13.5 13.1 8.3 6.6 9.6 4.1 6.8 10.2 13.9 14.9 14.5 14.8 8.6 11.8 12.0 10.2 6.6 2.2 0.3 0.0 0.0 0.0
0.0 0.0 0.0 0.0 0.0 0.0 0.0 12.0 20.0 15.1 15.0 8.1 10.7 10.2 14.1 12.0 12.9 10.6 14.4 17.3 13.2 14.3 17.1 19.0 20.1 13.7 9.9 12.6 13.1 12.1 11.6 14.6 18.2 16.4 14.8 9.5 14.4 13.3 11.7 10.3 7.7 5.8 1.7 1.9 2.3
0.0 0.0 0.0 0.0 0.0 0.0 5.2 17.6 18.1 15.8 11.9 13.2 12.8 16.3 15.8 13.3 14.3 13.6 14.8 16.2 14.8 13.6 18.7 19.7 18.9 11.2 10.5 9.5 11.3 13.5 14.5 9.3 14.9 13.8 14.8 14.4 16.7 14.0 12.5 12.1 10.3 9.5 6.4 4.2 4.9
0.0 0.0 0.0 0.0 0.0 0.0 12.1 14.9 14.4 8.0 7.9 11.0 18.2 16.1 19.7 17.2 17.1 16.9 16.9 13.4 14.3 11.2 9.3 15.6 19.4 13.9 11.4 6.6 9.5 13.7 11.7 15.2 14.5 19.2 18.8 16.0 16.5 18.4 15.3 14.1 12.5 12.2 9.8 6.7 6.0
0.0 2.8 0.0 0.0 0.0 6.8 16.3 15.7 12.4 5.3 6.7 13.2 15.7 17.5 17.8 18.2 17.0 19.3 18.3 14.8 12.6 12.8 10.6 14.5 17.1 16.8 12.5 16.4 17.1 15.4 16.7 15.4 15.6 15.8 18.1 18.7 20.0 15.5 14.4 13.2 13.3 12.4 11.1 10.4 9.4
0.0 12.3 0.0 0.0 9.0 11.8 15.0 12.8 4.5 10.6 7.1 10.3 12.4 14.6 17.5 16.4 19.2 19.5 18.2 16.1 10.4 11.8 16.2 13.9 17.1 19.9 17.7 13.6 9.8 13.7 16.0 15.5 19.5 17.1 16.8 18.3 20.3 14.8 13.1 12.8 12.4 12.5 11.3 9.9 8.9
4.9 4.7 0.0 0.0 15.6 15.1 12.6 12.0 10.0 12.0 12.2 12.7 14.5 13.8 14.2 16.5 20.2 18.9 16.7 12.4 12.1 12.7 15.3 14.6 18.3 22.2 20.2 17.3 12.9 16.6 15.4 15.1 15.0 15.3 19.6 19.1 21.8 12.5 13.2 13.8 13.3 12.9 12.2 11.5 10.8
4.4 11.3 7.5 4.9 9.3 14.6 15.6 15.0 14.5 9.0 11.8 12.1 13.8 13.5 16.0 17.8 16.3 20.2 17.7 13.7 12.5 12.6 4.8 12.3 18.4 20.0 23.1 20.1 15.7 18.5 16.1 15.7 16.4 20.2 18.3 19.5 18.5 15.3 14.9 14.3 13.8 13.7 12.5 12.1 11.7
5.5 12.0 12.0 14.6 13.2 13.5 13.4 14.6 15.4 16.0 12.7 13.2 15.2 15.1 17.7 21.2 20.8 19.8 17.3 17.0 14.1 11.5 14.7 16.4 19.4 18.7 16.3 14.9 14.7 16.4 16.6 17.1 18.7 17.7 18.5 17.2 17.1 14.6 13.5 13.5 12.8 12.1 11.8 12.1 12.2
9.9 12.5 11.6 10.6 10.0 12.8 14.8 16.4 15.5 14.8 15.1 16.4 18.1 15.6 17.8 19.5 18.5 19.8 18.6 18.2 18.4 16.4 15.6 16.5 19.4 18.2 18.3 15.2 15.1 18.1 16.5 15.6 16.8 17.4 17.0 15.3 16.3 12.7 12.5 11.9 12.5 12.3 12.0 12.3 12.2
2.6 2.5 11.2 10.5 12.6 15.4 16.4 16.4 15.7 13.7 13.3 12.8 15.0 17.9 17.9 17.2 15.1 15.5 15.0 15.0 15.6 16.6 16.6 18.5 19.4 19.9 21.9 17.9 18.0 21.5 19.2 17.4 17.3 16.7 17.2 18.5 15.0 13.1 13.6 12.9 12.8 12.8 12.3 12.3 12.0